Location: Melbourne
(37.8666°S, 145.1333°E)
Time: 21:08:30
(UTC+10:00)

Daily predictions for brighter satellites

Satellite Brightness Start Highest point End
(mag) Time Altitude Azimuth Time Altitude Azimuth Time Altitude Azimuth
COSMOS 2406 3.3 17:25:58 10° SSW 17:31:51 87° ESE 17:37:38 10° NNE
Cosmos 923 Rocket 4.1 17:28:43 10° S 17:34:03 60° ESE 17:39:21 10° NNE
SL-8 R/B 3.7 17:29:12 10° SW 17:34:05 73° SSE 17:38:55 10° ENE
Aureole 1 Rocket 4.2 17:27:55 10° S 17:34:33 45° ESE 17:39:36 10° NE
Meteor 2-11 Rocket 4.5 17:29:13 10° S 17:35:23 65° E 17:41:26 10° NNE
CZ-4 R/B 3.0 17:38:48 10° ESE 17:41:08 15° E 17:43:28 10° NE
Thor Agena Rocket 3.7 17:38:06 10° NNE 17:43:11 81° WNW 17:48:19 10° SSW
COSMO-SKYMED 1 2.9 17:42:17 10° N 17:46:39 76° W 17:51:05 10° SSW
SL-27 R/B 3.1 17:44:39 10° S 17:48:00 34° ESE 17:51:20 10° NE
ERS-2 2.9 17:45:39 10° S 17:49:21 57° WSW 17:52:59 10° NNW
Cosmos 1833 Rocket 3.9 17:49:50 10° S 17:53:57 20° SE 17:58:03 10° ENE
SMAP 4.1 17:51:29 10° SE 17:55:25 26° E 17:59:19 10° NNE
SJ-12 4.5 17:53:07 10° SSE 17:57:06 39° E 18:01:00 10° NNE
USA 215 3.4 17:53:07 10° SE 17:59:44 79° SW 18:06:19 10° NW
OAO 3 Rocket 3.8 17:58:22 10° W 18:02:58 53° N 18:07:36 10° ENE
Abrixas rocket 4.3 18:03:56 10° WSW 18:06:15 17° SSW 18:08:21 11° SSE
Cosmos 2112 Rocket 4.0 18:01:02 10° SSW 18:06:27 77° ESE 18:11:45 10° NNE
CZ-2C R/B 2.6 18:02:04 10° SSE 18:07:17 62° E 18:12:18 10° N
Meteor 1-25 Rocket 4.3 18:01:49 10° N 18:07:38 82° E 18:13:34 10° S
Cosmos 1484 Rocket 4.0 18:07:41 15° SE 18:09:55 23° E 18:13:09 10° NNE
Meteor 1-18 Rocket 4.3 18:05:24 10° S 18:11:18 76° E 18:17:13 10° NNE
BREEZE-M DEB (TANK) 4.4 18:01:13 10° NNW 18:13:47 35° NNE 18:16:59 17° E
Cosmos 405 Rocket 3.8 18:11:08 10° SSE 18:14:10 23° ESE 18:17:10 10° NE
Atlas Centaur 2 2.9 18:11:58 10° NW 18:14:55 23° N 18:17:45 12° ENE
Cosmos 2298 Rocket 4.1 18:15:29 10° N 18:20:41 59° ENE 18:25:57 10° SSE
Cosmos 1602 4.3 18:17:38 10° NNE 18:21:17 36° E 18:23:43 18° SE
Cosmos 2297 3.8 18:17:55 10° N 18:23:23 53° ENE 18:28:07 14° SE
GEOS 3 Rocket 3.6 18:22:42 16° SE 18:26:49 66° ENE 18:31:51 10° NNW
Cosmos 1680 Rocket 4.2 18:22:35 10° SSW 18:27:51 57° WNW 18:33:01 10° N
MSX 3.8 18:24:13 10° SSE 18:30:02 71° ENE 18:35:46 10° N
USA 267 3.8 18:26:43 20° E 18:30:46 39° SSE 18:36:47 10° SSW
Cosmos 1633 2.4 18:27:55 10° N 18:31:31 70° E 18:34:28 15° SSE
Okean 2 Rocket 3.9 18:28:04 10° NNW 18:32:23 54° W 18:36:49 10° S
Cosmos 2278 Rocket 2.9 18:27:53 10° NW 18:33:27 55° WSW 18:39:04 10° SSE
CSL-04 Debris 4.3 18:29:58 10° SSE 18:35:29 80° WSW 18:40:57 10° NNW
SEDSat Delta rocket 4.2 18:33:46 10° WNW 18:37:29 32° N 18:39:46 18° NE
IRS-1A Rocket 4.2 18:34:57 10° SSE 18:40:33 78° ENE 18:46:11 10° N
Cosmos 1812 4.2 18:37:12 10° SSW 18:40:55 39° W 18:44:34 10° NNW
Cosmos 990 Rocket 3.9 18:36:48 10° N 18:42:01 68° ENE 18:45:46 20° SSE
AQUARIUS 4.1 18:37:26 10° SSE 18:42:02 83° ENE 18:46:33 10° N
Cosmos 2150 Rocket 3.9 18:37:18 10° NNW 18:42:33 82° ENE 18:46:48 16° SSE
CZ-4C R/B 3.5 18:35:20 10° NW 18:43:03 56° SW 18:49:42 12° SSE
Lacrosse 5 1.9 18:38:17 10° SW 18:43:28 83° NW 18:48:35 10° NE
Cosmos 1607 4.5 18:40:14 10° N 18:46:05 39° ENE 18:47:57 32° ESE
Ariane Rocket 3.9 18:41:16 10° S 18:46:12 49° WSW 18:51:05 10° NW
SPOT 3 Rocket 3.6 18:49:24 28° SE 18:51:54 52° E 18:56:56 10° N
IDEFIX/ARIANE 42P 3.7 18:47:47 10° S 18:52:44 43° WSW 18:57:39 10° NW
Cosmos 1437 3.7 18:53:36 10° SSW 18:56:48 49° W 18:59:56 10° N
CORIOLIS 4.1 18:53:43 10° SSE 18:59:11 88° WSW 19:04:34 10° NNW
Cosmos 1898 Rocket 4.4 18:54:05 10° NW 18:59:16 50° WSW 19:04:32 10° S
YAOGAN 1 2.5 18:57:34 25° SSE 19:00:07 88° WSW 19:04:29 10° NNW
Cosmos 2315 Rocket 4.5 18:58:51 10° SSW 19:05:01 62° W 19:11:09 10° N
Cosmos 1932 4.5 19:00:40 10° N 19:06:44 56° ENE 19:07:58 48° ESE
Cosmos 2082 Rocket 2.1 19:02:20 10° SSW 19:08:09 85° ESE 19:13:53 10° NNE
Meteor 1-19 Rocket 4.3 19:02:11 10° S 19:08:10 90° E 19:14:05 10° N
Cosmos 1300 Rocket 3.5 19:05:14 10° N 19:09:40 88° WSW 19:10:45 52° S
MOS 1 4.2 19:07:07 19° SSE 19:11:23 87° ENE 19:17:03 10° NNW
Tiangong 1 3.7 19:10:44 10° NNW 19:11:18 14° NNW 19:11:18 14° NNW
CZ-4 R/B 2.9 19:13:19 14° SSW 19:16:16 33° WSW 19:19:50 10° NW
SL-08 R/B 4.4 19:13:20 10° N 19:19:39 87° E 19:26:06 10° S
Nadezhda 1 Rocket 4.2 19:19:41 10° S 19:30:42 18° NNE 19:32:07 10° NNE
Cosmos 1745 Rocket 3.8 19:22:10 10° N 19:28:21 84° E 19:30:48 40° S
Meteor 1-11 Rocket 4.4 19:23:01 10° NNW 19:28:55 59° W 19:34:51 10° S
USA 238 DEB 4.4 19:30:22 10° N 19:35:25 39° NNE 19:35:25 39° NNE
USA 238 4.4 19:30:29 10° N 19:35:28 39° NNE 19:35:28 39° NNE
Okean 1 Rocket 4.1 19:32:59 10° NNW 19:36:02 41° NW 19:36:02 41° NW
Cosmos 1833 Rocket 3.2 19:32:43 10° SSW 19:38:16 57° WNW 19:43:45 10° N
ATLAS 3B R/B 2.7 19:39:29 10° NNW 19:44:56 61° N 19:44:56 61° N
Atlas Centaur 2 4.1 19:59:43 10° WNW 20:00:24 14° WNW 20:00:24 14° WNW
USA 267 3.6 20:14:06 62° WNW 20:14:06 62° WNW 20:20:04 10° SW
